TIME,DELAY(SENSOR),PRES,OXYGEN,RAWTEMP,T(OPTODE),TCPHASE,FLUOR,BETA(BETA700),BETA(BETA412),BETA(BETA440),CDOM,C(CSC),ED(ED411.90),ED(ED443.80),ED(ED489.40),ED(ED554.70),LU(LU412.20),LU(LU443.80),LU(LU489.40),LU(LU555.00),COMP,TILTX,TILTY,CHECK
1356129279,5804,859.8499755859375000,165.1515045166015600,433.1810913085937500,9.5888366699218750,39.1249885559082000,52,99,96,80,80,12728,2146965312,2147517988,2147288539,2147504731,2147091492,2146929609,2147704466,2147121124,1764,-1,9,23625
1356132875,5804,965.5700073242188000,193.9270019531250000,498.2655944824219000,7.5832929611206055,38.2497901916503900,51,99,96,79,81,12724,2146967323,2147520384,2147296036,2147518006,2147088822,2146923757,2147721234,2147124416,3303,-1,9,39080
1356136475,5805,975.5200195312500000,204.1858062744140600,507.0028991699219000,7.3120708465576170,37.7654190063476560,52,99,98,78,80,12719,2146965129,2147512768,2147294171,2147517101,2147091501,2146930642,2147720585,2147120018,255,-1,9,53990
1356140075,5807,980.0700073242188000,206.2895050048828000,509.1878051757812500,7.2441639900207520,37.6772193908691400,52,101,98,80,80,12721,2146966226,2147517357,2147294857,2147515346,2147091666,2146924845,2147723181,2147120411,84,-1,8,28816
1356143675,5808,980.5800170898438000,209.5744018554687500,512.1790161132812000,7.1511511802673340,37.5356483459472660,51,100,98,79,81,12720,2146963876,2147520146,2147296027,2147519442,2147089078,2146921865,2147720914,2147117961,317,-1,9,51312
1356147275,5807,978.7000122070312000,211.5946960449218800,513.5324707031250000,7.1090412139892580,37.4410896301269500,51,99,99,78,81,12715,2146966180,2147520841,2147296374,2147517952,2147094802,2146921088,2147723739,2147123812,472,-1,8,19130
1356150875,5806,981.6300048828125000,212.1450042724609400,514.7296142578125000,7.0717868804931640,37.4294204711914060,52,100,97,78,80,12716,2146967990,2147520210,2147297846,2147519817,2147088045,2146917970,2147722651,2147119780,3531,-1,9,8009
1356154475,5806,984.0800170898438000,212.8283996582031200,514.6685791015625000,7.0736827850341800,37.3887596130371100,52,111,97,80,81,12702,2146964086,2147517531,2147294582,2147516653,2147089618,2146925312,2147721590,2147121371,3179,-1,9,31307
1356158075,5809,982.2299804687500000,212.0800018310547000,516.2758178710938000,7.0236530303955080,37.4604988098144500,51,98,99,78,80,12720,2146964461,2147518820,2147296064,2147519524,2147092544,2146927204,2147718857,2147122678,34,-1,9,56792
1356161675,5806,990.4299926757812000,213.1098022460937500,515.6757202148438000,7.0423359870910645,37.3907089233398440,51,100,98,81,80,12712,2146965833,2147521581,2147294628,2147521088,2147089188,2146927195,2147722907,2147122276,3400,-1,9,44421
1356165275,5805,990.4299926757812000,213.0693969726562500,514.7634277343750000,7.0707340240478520,37.3772583007812500,51,99,97,79,80,12720,2146961435,2147520164,2147295040,2147518820,2147089609,2146922989,2147721956,2147121353,3351,-1,8,64226
1356168875,5804,991.5300292968750000,213.1183013916015600,514.8699951171875000,7.0674152374267580,37.3762092590332000,52,98,98,78,80,12718,2146963821,2147520210,2147296658,2147520128,2147088201,2146925504,2147717504,2147119853,3365,-1,9,55508
1356172475,5809,988.2000122070312000,213.0823974609375000,515.2747802734375000,7.0548129081726070,37.3851509094238300,51,100,97,79,81,12718,2146962203,2147519003,2147298313,2147519625,2147091739,2146924763,2147724480,2147120054,66,-1,9,36962
1356176075,5806,989.8599853515625000,211.6053924560547000,516.4326171875000000,7.0187687873840330,37.4915504455566400,52,98,99,79,81,12712,2146964608,2147518976,2147294692,2147522340,2147091693,2146923949,2147723401,2147120978,3495,-1,9,50563
1356179675,5804,989.5399780273438000,212.2243041992187500,516.5718994140625000,7.0144319534301760,37.4577789306640600,52,102,98,79,82,12712,2146961819,2147519972,2147297243,2147515684,2147090212,2146930157,2147718729,2147120941,3310,-1,9,3739
1356183275,5807,990.2399902343750000,213.4925994873047000,516.6422729492188000,7.0122408866882320,37.3853683471679700,52,99,99,79,81,12712,2146963666,2147517622,2147295734,2147518500,2147094034,2146921810,2147722139,2147123072,3426,-1,8,53679
1356186875,5805,995.2899780273438000,213.2297973632812500,515.4268798828125000,7.0500779151916500,37.3792381286621100,52,101,97,80,80,12700,2146963081,2147517248,2147293851,2147519588,2147091382,2146925933,2147724233,2147120082,3480,-1,9,29616
1356190475,5804,1000.0599975585938000,210.8768005371093800,513.1472778320312000,7.1210250854492190,37.4761390686035160,52,99,97,79,80,12708,2146960384,2147517952,2147298496,2147516489,2147090496,2146919424,2147720274,2147119488,3235,-1,9,26711
1356194075,5806,996.3699951171875000,211.9405975341797000,513.6176147460938000,7.1063919067382810,37.4216384887695300,52,100,98,80,81,12711,2146963456,2147516534,2147296658,2147517120,2147091730,2146923794,2147721444,2147119396,3389,-1,9,40870
1356197675,5805,994.5999755859375000,211.7805023193359400,514.1074829101562000,7.0911469459533690,37.4401206970214840,51,100,100,80,81,12710,2146964187,2147517851,2147298925,2147517028,2147091401,2146920384,2147724589,2147121325,156,-1,8,27080
1356201275,5808,994.3599853515625000,212.2597961425781200,514.9559936523438000,7.0647377967834470,37.4269790649414060,51,99,97,79,81,12714,2146965028,2147517769,2147296265,2147517723,2147090176,2146918336,2147722121,2147121600,3379,-1,9,53360
1356204875,5807,989.9000244140625000,213.0867004394531200,516.7025756835938000,7.0103631019592285,37.4104804992675800,51,101,97,78,81,12709,2146964425,2147520365,2147296960,2147517531,2147088749,2146922349,2147721819,2147120411,251,-1,9,19840
1356208475,5806,992.7700195312500000,214.2610015869140600,517.1420288085938000,6.9966797828674320,37.3500900268554700,51,99,97,119,81,12710,2146962020,2147519972,2147297819,2147520548,2147093001,2146920393,2147721600,2147120301,3166,-1,9,6437
1356212075,5806,988.0999755859375000,214.2420959472656200,518.2827148437500000,6.9611501693725590,37.3710899353027340,52,98,98,78,80,12704,2146960923,2147519076,2147298194,2147515977,2147093156,2146926756,2147720960,2147120054,3454,-1,9,37584
1356215675,5804,992.7600097656250000,214.1887054443359400,518.2957763671875000,6.9607410430908200,37.3744316101074200,51,109,97,78,80,12707,2146962066,2147517952,2147296758,2147519149,2147092644,2146922112,2147724608,2147119808,3548,-1,9,7431
1356219275,5806,989.1599731445312000,213.5653991699218800,517.8543701171875000,6.9744911193847660,37.4029808044433600,52,98,97,77,80,12713,2146965028,2147517449,2147300068,2147519725,2147091757,2146923026,2147720128,2147122386,101,-1,9,61069
1356222875,5806,990.1599731445312000,213.8811035156250000,518.2819824218750000,6.9611711502075195,37.3922195434570300,51,100,96,79,81,12704,2146962953,2147516388,2147300169,2147520722,2147091501,2146929225,2147722715,2147119798,3480,-1,8,40322
1356226475,5808,989.0399780273438000,214.4161071777343800,518.5764770507812000,6.9520001411437990,37.3661308288574200,52,98,98,78,81,12704,2146966528,2147521344,2147298797,2147520603,2147089042,2146925513,2147724544,2147121792,127,-1,8,36349
1356230075,5806,990.0100097656250000,214.4512939453125000,518.6046142578125000,6.9511218070983890,37.3646202087402340,51,98,96,79,81,12705,2146964891,2147518006,2147295168,2147520192,2147089106,2146923437,2147727113,2147123364,356,-1,8,52947
1356233675,5807,992.2399902343750000,214.8083953857422000,518.0620117187500000,6.9680271148681640,37.3351402282714840,52,97,97,79,81,12702,2146964077,2147519332,2147296045,2147517065,2147087579,2146918793,2147723629,2147122971,51,-1,8,14352
1356237275,5809,992.6699829101562000,214.5525054931640600,518.3104248046875000,6.9602890014648440,37.3539199829101560,52,98,97,78,82,12697,2146961280,2147516854,2147297554,2147518217,2147089426,2146920923,2147722624,2147121289,310,-1,8,59661
1356240875,5807,995.3699951171875000,214.5632019042968800,518.0103149414062000,6.9696359634399410,37.3482513427734400,52,105,98,78,81,12695,2146965010,2147518756,2147294317,2147517421,2147092013,2146926162,2147720073,2147122313,215,-1,8,44401
1356244475,5806,994.1799926757812000,213.9788970947265600,518.3344116210938000,6.9595417976379395,37.3874282836914060,51,97,98,78,80,12694,2146962715,2147519478,2147296786,2147519250,2147090934,2146921536,2147722029,2147125348,3225,-1,8,61601
1356248075,5810,996.8699951171875000,213.7967987060547000,517.5728759765625000,6.9832601547241210,37.3840293884277340,51,99,97,80,82,12686,2146966345,2147517641,2147296256,2147518153,2147091785,2146923638,2147721700,2147122002,58,-1,9,45213
1356251675,5806,993.0399780273438000,213.0760955810547000,517.6594238281250000,6.9805650711059570,37.4277381896972660,51,99,97,80,82,12684,2146965037,2147518272,2147297298,2147514523,2147091117,2146921664,2147720265,2147121353,110,-1,8,23347
1356255275,5803,995.7899780273438000,213.1089019775390600,518.1204833984375000,6.9662017822265625,37.4341201782226560,51,100,99,79,81,12684,2146965842,2147517376,2147297060,2147519634,2147091958,2146923611,2147722816,2147122678,3367,-1,9,5264
1356258875,5804,995.5900268554688000,212.8058013916015600,518.0239257812500000,6.9692130088806150,37.4494590759277340,52,98,99,79,81,12689,2146964854,2147518646,2147298861,2147521307,2147088850,2146921920,2147716900,2147120594,3533,-1,9,63784
1356262475,5808,996.7500000000000000,212.1903076171875000,518.1608276367188000,6.9649491310119630,37.4873809814453100,51,97,96,79,80,12684,2146966070,2147517586,2147298998,2147521581,2147091300,2146917970,2147720374,2147118692,3587,-1,8,6040
1356266075,5806,993.9600219726562000,213.7673034667968800,517.4420776367188000,6.9873337745666500,37.3840217590332000,51,100,97,79,80,12680,2146964251,2147520466,2147297563,2147520530,2147092178,2146924178,2147717312,2147122962,3208,-1,8,59298
1356269675,5805,1003.0399780273438000,212.7536926269531200,515.7836914062500000,7.0389728546142580,37.4126205444335940,52,137,98,79,80,12682,2146962797,2147518400,2147300891,2147522148,2147089874,2146924736,2147722166,2147119570,3397,-1,8,34532
1356272756,5807,998.8400268554688000,213.8625946044922000,516.9923095703125000,7.0013408660888670,37.3698692321777340,51,101,97,82,82,12694,2146962185,2147517366,2147298313,2147520210,2147092342,2146923968,2147721682,2147119798,3191,-1,9,5126
